STARLINK-35271, 65812

Orbit data source: Space-Track

STARLINK-35271, 65812 is a payload satellite owned by SpaceX/Seattle (US) in SSO that was launched on Fri, 26 Sep 2025 UTC via an FALCON 9 launch vehicle from the Air Force Western Test Range (AFWTR). Payload-class satellites include a variety of spacecraft equipped with specific instruments for various scientific and technological missions. These include communications satellites like Starlink; space stations such as the ISS; scientific satellites like the Hubble; Earth observation satellites from companies like Planet Labs, Umbra, and HawkEye 360; GPS; miniature CubeSats for education and research; and military/defense satellites.

Loading next visibility...
Identifier
65812, 2025-218X
Orbit
SSO
Country
Flag of USUS
Related business
Manufacturer
SpaceX/Seattle
Mission
Operational Commercial Communications
Bus & Motor
STARLINK V2MO, Unknown motor
Mass
575 kg wet, ~530 kg dry
Launch date (UTC)
2025-09-26 (5 months ago)
Launch vehicle
FALCON 9
Launch site
Air Force Western Test Range (AFWTR)
Object type
Payload
Rocket body
Debris
Shape & HBR
Box + 2 Pan, 17.7 m
Radar Cross Section
36.964 m²

Expand to show TLE details & history
Last TLE update: 9 hours ago

TLE from 9 hours ago
0 STARLINK-35271
1 65812U 25218X   26062.50844594  .00005990  00000-0  41910-3 0  9996
2 65812  97.6013 286.9249 0001977  83.9775 276.1677 15.05642595 24041
Epoch: 2026-03-03T12:12Z
TLE epoch observation values (Epoch: 2026-03-03T12:12:09.729Z)
Latitude
-0.00001°
Longitude
-57.40213°
Altitude
552.452 km
Speed
7.586 km/s
True Right ascension
19h 07m 41s
True Declination
0° 00' 00"
Sunlit
Object was in daylight at epoch
Visualization orbit readout
Latitude
Unknown
Longitude
Unknown
Altitude
Unknown
Speed
Unknown
Apparent Right ascension
Unknown
Apparent Declination
Unknown
Sunlit
N/A
Visualization observer readout
Local Sidereal Time
00:35:41
Azimuth
Unknown
Elevation
Unknown
Doppler factor
Unknown
Orbital elements
Apogee altitude
547.896 km
Perigee altitude
545.158 km
Semi-major axis
6,924.664 km
Eccentricity
0.0002
Inclination
97.6013°
RAAN
286.9249°
Arg. of periapsis
83.9775°
True anomaly
276.14518°
Mean anomaly
276.1677°
Eccentric anomaly
276.15644°
Mean motion
3.76656 °/min
Orbital period
95.58 mins
BSTAR
0.0004191
Loading maneuver chart data...
Computing Atmospheric mass density...
Loading historical data...
Loading historical data...
Loading historical data...
Loading historical data...
Loading historical data...
Loading historical data...
Loading historical data...

Documentation

Showing up to 5 results
|